Location: Malvern Link
(52.1333°N, 2.3000°W)
Time: 11:09:36
(UTC+00:00)

Envisat - Pass Details

Date: 25 January 2022
Orbit: 764 x 765 km, 98.2° (Epoch: 22 May)

Event Time Altitude Azimuth Distance (km) Brightness Sun altitude
Rises 04:52:33 0° 17° (NNE) 3,244 6.5 -28.4°
Reaches altitude 10° 04:54:55 10° 21° (NNE) 2,313 5.8 -28.1°
Maximum altitude 04:59:56 57° 101° (E) 902 3.5 -27.3°
Drops below altitude 10° 05:04:55 10° 180° (S) 2,297 5.4 -26.5°
Sets 05:07:15 0° 184° (S) 3,219 6.2 -26.2°
